Weather Roundup
Issued by NWS

Home | Current Version | Previous Version | Text Only | Print | Product List | Glossary On
Versions: 1 2 3 4 5 6 7 8 9 10 11 12 13 14 15 16 17 18 19 20 21 22 23 24 25 26 27 28 29 30 31 32 33 34 35 36 37 38 39 40 41 42 43 44 45 46 47 48 49 50
000
NZUS93 KARX 222359
HRRWXR

CURRENT HOURLY OBSERVATIONS ACROSS
MUCH OF THE UPPER MISSISSIPPI VALLEY
NATIONAL WEATHER SERVICE LA CROSSE WI
600 PM CST SAT NOV 22 2014


...SOUTHEAST MINNESOTA...


CITY           SKY/WX    TMP DP  RH WIND       PRES   REMARKS
ROCHESTER      FOG       37  37 100 S8        29.66F VSB 1/4 WCI  31
ROCHESTER/MAYO CLOUDY    38  37  98 SE9       29.66F VSB 1/4 WCI  31
WINONA         CLOUDY    36  36 100 SE6       29.70F FOG     WCI  31
AUSTIN         CLOUDY    39  37  93 S8        29.64F FOG     WCI  34
ALBERT LEA     CLOUDY    39  39 100 S12       29.62F FOG     WCI  32
DODGE CENTER   FOG       37  37 100 S9        29.64S VSB 1/2 WCI  31
PRESTON        FOG       38  37  98 S8        29.68F VSB 1/4 WCI  32
OWATONNA       CLOUDY    39  37  93 S8        29.62F FOG     WCI  34
FARIBAULT      CLOUDY    37  36  93 S7        29.61F FOG     WCI  32
$$

...ELSEWHERE IN MINNESOTA...


CITY           SKY/WX    TMP DP  RH WIND       PRES   REMARKS
MINNEAPOLIS    CLOUDY    35  33  92 SE7       29.62F FOG     WCI  29
INTNL FALLS    CLOUDY    34  29  82 E7        29.54S WCI  28
DULUTH         CLOUDY    34  30  85 S13       29.58F FOG     WCI  25
RED WING         N/A     37  36  93 SE7       29.66F FOG     WCI  32
REDWOOD FALLS  PTCLDY    35  33  92 SE10      29.54F FOG     WCI  27
MANKATO        CLOUDY    37  34  87 S14       29.59F WCI  29
WORTHINGTON    PTCLDY    37  34  87 S16       29.53S WCI  28
FAIRMONT       CLOUDY    37  34  87 S14       29.57F WCI  29
$$

...SOUTHWEST WISCONSIN...


CITY           SKY/WX    TMP DP  RH WIND       PRES   REMARKS
LA CROSSE      CLOUDY    40  38  93 SE5       29.72F FOG
PRAIRIE DU CHI CLOUDY    42  40  91 CALM      29.73S
BOSCOBEL       CLOUDY    41  39  93 CALM      29.75F FOG
LONE ROCK      NOT AVBL
PLATTEVILLE    CLOUDY    47  46  97 S9        29.77S
FORT MC COY    CLOUDY    39  38  99 S3        29.75S FOG
CAMP DOUGLAS   CLOUDY    39  39 100 S2        29.75R
VIROQUA        CLOUDY    39  39 100 S5        29.72F VSB 1/4
WIS DELLS      CLOUDY    41  40  95 SW3       29.76S FOG
$$

...ELSEWHERE IN WISCONSIN...


CITY           SKY/WX    TMP DP  RH WIND       PRES   REMARKS
MILWAUKEE      CLOUDY    47  43  86 SW12      29.82R
MADISON        CLOUDY    46  43  89 S8        29.78S
GREEN BAY      FOG       37  36  96 S5        29.78R VSB 1/4 WCI  33
EAU CLAIRE     CLOUDY    35  34  96 S6        29.69F FOG     WCI  30
BLACK RVR FLS  CLOUDY    39  39  99 SW3       29.73S FOG
MEDFORD        FOG       33  33  99 S6        29.71R VSB 1/4 WCI  27
WAUSAU         FOG       34  34 100 CALM      29.72S VSB 1/4
WIS RAPIDS     CLOUDY    37  35  92 S7        29.76R FOG     WCI  32
MARSHFIELD     FOG       36  35  96 S7        29.72S VSB 1   WCI  30
RICE LAKE      CLOUDY    34  33  95 S5        29.69F FOG     WCI  30
$$

...NORTHEAST IOWA...


CITY           SKY/WX    TMP DP  RH WIND       PRES   REMARKS
DECORAH        FOG       37  37 100 SE7       29.69F VSB<1/4 WCI  32
MASON CITY     PTCLDY    35  35 100 S9        29.66F FOG     WCI  28
CHARLES CITY   CLEAR     41  39  93 S10       29.69S
OELWEIN        PTCLDY    43  43 100 S14G21    29.73S
$$

...ELSEWHERE IN IOWA...


CITY           SKY/WX    TMP DP  RH WIND       PRES   REMARKS
DES MOINES     CLOUDY    52  50  93 S9        29.70F FOG
IOWA CITY      CLOUDY    53  51  93 S14       29.79S
FORT DODGE     CLOUDY    46  39  76 S9        29.64F
$$

...NORTHERN ILLINOIS...


CITY           SKY/WX    TMP DP  RH WIND       PRES   REMARKS
CHICAGO-OHARE  CLOUDY    51  46  83 S12       29.85S
CHICAGO-MIDWAY MOCLDY    53  47  79 S9        29.88S
MOLINE         CLOUDY    54  49  83 S10G21    29.81R
ROCKFORD       CLOUDY    47  44  90 S10       29.84S
PEORIA         CLOUDY    56  46  69 S16       29.88S
$$

NOTE: "FAIR" INDICATES FEW OR NO CLOUDS BELOW 12,000 FEET WITH NO
SIGNIFICANT WEATHER AND/OR OBSTRUCTIONS TO VISIBILITY. WIND
SPEEDS ARE IN MILES-PER-HOUR.



USA.gov is the U.S. government's official web portal to all federal, state and local government web resources and services.